PRPLR SBPF-SSCN

Flight info

Callsign PRPLR
Flight time N/A
Altitude 15000
Route EAGLE R563 JAUNT
Aircraft E50P/L-SBDFGRWY/LB2

Departure

Time 2026-04-17 21:21
Airport Lauro Kurtz Airport (SBPF)

Arrival

Time N/A
Airport Canela Airport (SSCN)
Time Latitude Longitude Altitude Speed Heading
2026-04-17 20:59 -28.24307 -52.32928 2378 ft 0 kts 23°
2026-04-17 21:16 -28.24304 -52.32928 2378 ft 0 kts 347°
2026-04-17 21:16 -28.24302 -52.32931 2378 ft 1 kts 298°
2026-04-17 21:17 -28.24305 -52.32937 2378 ft 1 kts 208°
2026-04-17 21:17 -28.24331 -52.32937 2378 ft 9 kts 173°
2026-04-17 21:17 -28.24411 -52.32905 2379 ft 9 kts 160°
2026-04-17 21:17 -28.24422 -52.32844 2380 ft 12 kts 70°
2026-04-17 21:18 -28.24375 -52.32709 2379 ft 25 kts 66°
2026-04-17 21:18 -28.24297 -52.32494 2379 ft 31 kts 66°
2026-04-17 21:18 -28.24219 -52.32265 2378 ft 31 kts 69°
2026-04-17 21:18 -28.24148 -52.32060 2383 ft 15 kts 69°
2026-04-17 21:19 -28.24141 -52.31982 2383 ft 5 kts 88°
2026-04-17 21:19 -28.24130 -52.31977 2383 ft 3 kts 314°
2026-04-17 21:19 -28.24128 -52.32001 2383 ft 0 kts 248°
2026-04-17 21:20 -28.24179 -52.32149 2381 ft 55 kts 251°
2026-04-17 21:20 -28.24399 -52.32778 2400 ft 112 kts 249°
2026-04-17 21:21 -28.24749 -52.33775 2450 ft 158 kts 249°
2026-04-17 21:21 -28.25154 -52.34963 3151 ft 152 kts 250°
2026-04-17 21:21 -28.25499 -52.36002 3952 ft 135 kts 250°
2026-04-17 21:21 -28.25958 -52.36907 4421 ft 139 kts 220°
2026-04-17 21:22 -28.26864 -52.37350 4887 ft 143 kts 206°
2026-04-17 21:22 -28.27845 -52.37579 5383 ft 144 kts 181°
2026-04-17 21:22 -28.28817 -52.37391 5937 ft 144 kts 170°
2026-04-17 21:22 -28.29729 -52.36843 6363 ft 152 kts 149°
2026-04-17 21:23 -28.30642 -52.36237 6807 ft 152 kts 159°
2026-04-17 21:23 -28.31581 -52.35667 7343 ft 155 kts 155°
2026-04-17 21:23 -28.32518 -52.35052 7914 ft 156 kts 159°
2026-04-17 21:23 -28.33478 -52.34457 8463 ft 159 kts 158°
2026-04-17 21:24 -28.34447 -52.33830 9028 ft 160 kts 159°
2026-04-17 21:24 -28.35427 -52.33222 9634 ft 161 kts 160°
2026-04-17 21:24 -28.36398 -52.32601 10167 ft 163 kts 160°
2026-04-17 21:24 -28.37396 -52.31976 10694 ft 165 kts 160°
2026-04-17 21:25 -28.38399 -52.31336 11227 ft 166 kts 159°
2026-04-17 21:25 -28.39415 -52.30699 11752 ft 168 kts 160°
2026-04-17 21:25 -28.40434 -52.30050 12292 ft 169 kts 159°
2026-04-17 21:25 -28.41469 -52.29397 12816 ft 171 kts 159°
2026-04-17 21:26 -28.42509 -52.28734 13364 ft 172 kts 159°
2026-04-17 21:26 -28.43555 -52.28073 13903 ft 172 kts 159°
2026-04-17 21:26 -28.44606 -52.27407 14397 ft 173 kts 159°
2026-04-17 21:26 -28.45661 -52.26738 14889 ft 175 kts 159°
2026-04-17 21:27 -28.46808 -52.26031 14976 ft 207 kts 158°
2026-04-17 21:27 -28.48156 -52.25176 14984 ft 237 kts 156°
2026-04-17 21:27 -28.49678 -52.24207 14978 ft 263 kts 156°
2026-04-17 21:27 -28.51339 -52.23146 14973 ft 284 kts 155°
2026-04-17 21:28 -28.53069 -52.22042 14974 ft 284 kts 155°
2026-04-17 21:28 -28.54774 -52.20953 14971 ft 279 kts 156°
2026-04-17 21:28 -28.56457 -52.19887 14965 ft 275 kts 156°
2026-04-17 21:28 -28.58116 -52.18832 14961 ft 272 kts 156°
2026-04-17 21:29 -28.59738 -52.17802 14959 ft 269 kts 156°
2026-04-17 21:29 -28.61364 -52.16768 14961 ft 267 kts 156°
2026-04-17 21:29 -28.62976 -52.15744 14961 ft 264 kts 156°
2026-04-17 21:29 -28.64574 -52.14725 14956 ft 262 kts 156°
2026-04-17 21:30 -28.66162 -52.13716 14958 ft 261 kts 156°
2026-04-17 21:30 -28.67743 -52.12708 14961 ft 260 kts 156°
2026-04-17 21:30 -28.69321 -52.11704 14964 ft 259 kts 156°
2026-04-17 21:30 -28.70895 -52.10701 14958 ft 259 kts 156°
2026-04-17 21:31 -28.72466 -52.09700 14962 ft 258 kts 156°
2026-04-17 21:31 -28.74034 -52.08700 14957 ft 258 kts 156°
2026-04-17 21:31 -28.75579 -52.07713 14957 ft 258 kts 156°
2026-04-17 21:31 -28.77148 -52.06714 14955 ft 258 kts 156°
2026-04-17 21:32 -28.78714 -52.05713 14954 ft 258 kts 156°
2026-04-17 21:32 -28.80282 -52.04713 14953 ft 259 kts 156°
2026-04-17 21:32 -28.81850 -52.03710 14955 ft 258 kts 156°